Showing default

LEMUR 2 HUBBLE-4, 64565

Orbit data source: Space-Track

LEMUR 2 HUBBLE-4, 64565 is an American payload satellite in SSO that was launched on Mon, 23 Jun 2025 UTC via an FALCON 9 launch vehicle from the Air Force Western Test Range (AFWTR). Payload-class satellites include a variety of spacecraft equipped with specific instruments for various scientific and technological missions. These include communications satellites like Starlink; space stations such as the ISS; scientific satellites like the Hubble; Earth observation satellites from companies like Planet Labs, Umbra, and HawkEye 360; GPS; miniature CubeSats for education and research; and military/defense satellites.

Loading next visibility...
Identifier
64565, 2025-135AP
Orbit
SSO
Country
Flag of USUS
Related business
Manufacturer
Spire/Glasgow
Mission
Operational Commercial Communications
Bus & Motor
CUBESAT 16U, Unknown motor
Mass
22 kg wet, 22 kg dry
Launch date (UTC)
2025-06-23 (1 year ago)
Launch vehicle
FALCON 9
Launch site
Air Force Western Test Range (AFWTR)
Object type
Payload
Rocket body
Debris
Shape & HBR
Box + 4 Pan, 1.4 m
Radar Cross Section
0.326 m², Medium (>0.1 m² and < 1m²)

Expand to show TLE details & history
Last TLE update: 19 hours ago

TLE from 19 hours ago
0 LEMUR 2 HUBBLE-4
1 64565U 25135AP  26221.26189329  .00001043  00000-0  10388-3 0  9996
2 64565  97.7732 334.5664 0004136 108.5679 251.5990 14.93743836 61796
Epoch: 2026-08-09T06:17Z
TLE epoch observation values (Epoch: 2026-08-09T06:17:07.580Z)
Latitude
-0.00005°
Longitude
-77.47659°
Altitude
590.229 km
Speed
7.564 km/s
True Right ascension
22h 18m 15s
True Declination
0° 00' 00"
Sunlit
Object was in full shadow at epoch
Visualization orbit readout
Latitude
Unknown
Longitude
Unknown
Altitude
Unknown
Speed
Unknown
Apparent Right ascension
Unknown
Apparent Declination
Unknown
Sunlit
N/A
Visualization observer readout
Local Sidereal Time
15:43:36
Azimuth
Unknown
Elevation
Unknown
Doppler factor
Unknown
Orbital elements
Apogee altitude
586.171 km
Perigee altitude
580.412 km
Semi-major axis
6,961.428 km
Eccentricity
0.00041
Inclination
97.7732°
RAAN
334.5664°
Arg. of periapsis
108.5679°
True anomaly
251.55404°
Mean anomaly
251.599°
Eccentric anomaly
251.57652°
Mean motion
3.73676 °/min
Orbital period
96.34 mins
BSTAR
0.00010388
Loading maneuver chart data...
Computing Atmospheric mass density...
Loading historical data...
Loading historical data...
Loading historical data...
Loading historical data...
Loading historical data...
Loading historical data...
Loading historical data...

Documentation

Showing up to 5 results
|